星链-4129 (STARLINK-4129 )

导读 | 星芒AI

STARLINK-4129 是 SpaceX Starlink 卫星互联网项目中的一颗低轨卫星,属于“星链”计划的组成部分。该卫星由 SpaceX 研制并发射,旨在为全球用户提供高速互联网服务。它运行在近地轨道,与其他 Starlink 卫星协同工作,通过激光通信和地面基站实现数据传输。STARLINK-4129 的部署有助于提升网络覆盖范围和连接稳定性,特别是在偏远地区。该卫星采用可再生电力系统,具备自动避撞功能,以确保在太空中的安全运行。

基本信息
目录编号:
53251
目录名称:
STARLINK-4129
国际标识:
2022-086K
轨道中心:
EARTH
卫星名称:
星链-4129
卫星全名:
星链-4129 (STARLINK-4129 )
卫星状态:
在轨 (已飞行1246 天)
发射日期:
2022-07-24 UTC
国别 :
美国 (US)
星等 :
--
轨道信息
数据来源 国际轨道数据 AOE轨道数据
星历时间 2025-12-21T03:26:55+0800
9小时前
查看轨道信息
2025-12-20T01:00:00+0800
1天前
查看轨道信息
半长轴 6917.891km 6917.867km
偏心率 0.0001694 0.000178
轨道倾角 53.216° 53.215°
近地点辐角 81.676° 77.062°
升交点赤经 188.224° 193.172°
平近点角 278.442° 53.801°
近地点 538.582km 538.498km
远地点 540.926km 540.962km
周期 95.438分钟 95.437分钟
每日圈数 15.088367 15.088444
详细信息
固有亮度:
5
最大亮度:
2.5
卫星平台:
Starlink v1.5
覆盖范围:
全球
运营商:
太空探索技术公司
运营商所在国:
美国
制造商(研发单位):
太空探索技术公司
制造商所在国:
美国
使用方式:
暂无
卫星简介
星链(Starlink)计划是由太空探索技术公司(SpaceX)提出的一个巨型低轨卫星互联网星座项目,计划在2019年至2024年间在太空搭建由约1.2万颗卫星组成的“星链”网络,其中1584颗将部署在地球上空550千米处的近地轨道,并从2020年开始工作。该卫星仍在工作。
2D轨道图
3D轨道图
轨道高度分析图
轨道倾角分析图
轨道综合分析图
查看轨道综合分析图